BLOCK DM-SL R/B         
1 27953U 03044B   19258.16049778 -.00000191  00000-0  00000+0 0  9995
2 27953   0.1988  79.6706 6575822 302.5408 356.3274  2.14421081125029
GALAXY 13 (HORIZONS 1)  
1 27954U 03044A   19258.41507869  .00000038  00000-0  00000+0 0  9993
2 27954   0.0098 169.6830 0000814 339.2182 227.6082  1.00269460 58424